This is the latest recevied weather packets stored in our database for station/object AC1IX. If no packets are shown the sender has not sent any weather packets the latest 10 day(s).
| Time | Temp. | Humidity | Pressure | Rain* | Wind** | Luminosity | Snow |
|---|---|---|---|---|---|---|---|
| 1777656692 | 12.78° C | 52% | 1011.7 hPa | 0 mm | - | 229 W/m² | - |
| 1777656387 | 11.11° C | 54% | 1011.7 hPa | 0 mm | - | 758 W/m² | - |
| 1777656082 | 11.11° C | 59% | 1011.7 hPa | 0 mm | - | 136 W/m² | - |
| 1777655779 | 12.22° C | 54% | 1011.6 hPa | 0 mm | - | 140 W/m² | - |
| 1777655476 | 12.22° C | 53% | 1011.8 hPa | 0 mm | - | 665 W/m² | - |
| 1777655173 | 13.33° C | 52% | 1011.6 hPa | 0 mm | - | 200 W/m² | - |
| 1777654869 | 12.22° C | 59% | 1011.8 hPa | 0 mm | - | 859 W/m² | - |
| 1777654567 | 13.33° C | 52% | 1011.6 hPa | 0 mm | - | 195 W/m² | - |
| 1777654264 | 13.89° C | 52% | 1011.7 hPa | 0 mm | - | 257 W/m² | - |
| 1777653962 | 13.33° C | 58% | 1011.5 hPa | 0 mm | - | 845 W/m² | - |
| 1777653658 | 13.33° C | 52% | 1011.8 hPa | 0 mm | - | 775 W/m² | - |
| 1777653355 | 13.33° C | 55% | 1011.9 hPa | 0 mm | - | 717 W/m² | - |
| 1777653052 | 12.22° C | 53% | 1011.7 hPa | 0 mm | - | 761 W/m² | - |
| 1777652748 | 11.67° C | 55% | 1011.6 hPa | 0 mm | - | 321 W/m² | - |
| 1777652445 | 12.22° C | 52% | 1011.9 hPa | 0 mm | - | 264 W/m² | - |
| 1777652143 | 12.22° C | 50% | 1011.9 hPa | 0 mm | - | 748 W/m² | - |
| 1777651839 | 12.78° C | 53% | 1012.1 hPa | 0 mm | - | 764 W/m² | - |
| 1777651536 | 12.78° C | 56% | 1012.2 hPa | 0 mm | - | 826 W/m² | - |
| 1777651233 | 12.78° C | 55% | 1012.2 hPa | 0 mm | - | 822 W/m² | - |
| 1777650929 | 11.67° C | 54% | 1012 hPa | 0 mm | - | 738 W/m² | - |
| 1777650627 | 11.11° C | 58% | 1012.1 hPa | 0 mm | - | 732 W/m² | - |
| 1777650324 | 10.56° C | 60% | 1012.1 hPa | 0 mm | - | 802 W/m² | - |
| 1777650021 | 10.56° C | 58% | 1012 hPa | 0 mm | - | 152 W/m² | - |
| 1777649719 | 11.11° C | 57% | 1012.2 hPa | 0 mm | - | 135 W/m² | - |
| 1777649414 | 11.67° C | 59% | 1012.4 hPa | 0 mm | - | 241 W/m² | - |
* Rain latest hour (hover to see other rain measurements)
** Current wind speed in m/s (hover to see current wind gust speed)